Location: W�rzburg
(49.7529°N, 9.8822°E)
Time: 18:02:04
(UTC+01:00)

ISS - Visible Passes

Search period start: 20 November 2017 00:00
Search period end: 30 November 2017 00:00
Orbit: 402 x 407 km, 51.6° (Epoch: 21 November)

Date Brightness Start Highest point End Pass type
(mag) Time Alt. Az. Time Alt. Az. Time Alt. Az.
27 Nov -0.8 19:07:24 10° SSW 19:07:38 11° SSW 19:07:38 11° SSW visible
28 Nov -1.8 18:15:45 10° S 18:17:35 17° SSE 18:17:35 17° SSE visible
29 Nov -1.4 17:25:01 10° SSE 17:25:54 11° SE 17:26:48 10° ESE visible
29 Nov -1.8 18:58:34 10° SW 19:00:07 24° SW 19:00:07 24° SW visible
